Regional Weather Roundup
Issued by NWS

Home | Current Version | Previous Version | Graphics & Text | Print | Product List | Glossary Off
Versions: 1 2 3 4 5 6 7 8 9 10 11 12 13 14 15 16 17 18 19 20 21 22 23 24 25 26 27 28 29 30 31 32 33 34 35 36 37 38 39 40 41 42 43 44 45 46 47 48 49 50

000
ASUS43 KMKX 040121
RWRWI

WISCONSIN REGIONAL WEATHER ROUNDUP
NATIONAL WEATHER SERVICE MILWAUKEE/SULLIVAN WI
800 PM CDT THU SEP 03 2015

NOTE: "FAIR" INDICATES FEW OR NO CLOUDS BELOW 12,000 FEET WITH NO
SIGNIFICANT WEATHER AND/OR OBSTRUCTIONS TO VISIBILITY.

WIZ001-002-006>008-014>016-023>028-040200-
NORTHWEST WISCONSIN

CITY           SKY/WX    TMP DP  RH WIND       PRES   REMARKS
SUPERIOR ARPT  CLEAR     58  56  91 NE8       29.96S
ASHLAND        CLEAR     58  57  97 N3        29.97S
HAYWARD        CLEAR     71  67  87 NE7       29.95R
SIREN          CLEAR     75  68  79 E3        29.92R
CUMBERLAND     CLEAR     72  64  78 SE5       29.93S
RICE LAKE      CLEAR     72  66  82 E5        29.94S
CHETEK         CLEAR     73  69  85 MISG      29.93S
LADYSMITH      CLEAR     74  67  79 CALM      29.97S
EAU CLAIRE     CLEAR     73  67  81 E9        29.92R
MENOMONIE      CLEAR     74  69  85 E6        29.91S
NEW RICHMOND   CLEAR     74  67  80 E6        29.90F
OSCEOLA        CLEAR     75  69  81 E6        29.92F
$$

WIZ003>005-009-010-017-018-040200-
NORTH CENTRAL WISCONSIN

CITY           SKY/WX    TMP DP  RH WIND       PRES   REMARKS
MANITOWISH WTR CLEAR     68  67  96 CALM      29.99R
ARBOR VITAE    CLEAR     69  67  90 CALM      30.00R
WOODRUFF       CLEAR     69  67  90 CALM      30.00R
RHINELANDER    CLEAR     68  62  81 CALM      30.00R
EAGLE RIVER    CLEAR     66  65  96 CALM      29.99S
LAND O LAKES   CLEAR     66  64  94 CALM      30.01R
PHILLIPS       CLEAR     71  65  82 E5        29.97R
TOMAHAWK       CLEAR     65  63  91 CALM      29.98S
MEDFORD        CLEAR     68  66  93 CALM      29.98R
MERRILL        CLEAR     64  64 100 CALM      29.98S
$$

WIZ029-030-035-036-043>047-040200-
CENTRAL WISCONSIN

CITY           SKY/WX    TMP DP  RH WIND       PRES   REMARKS
WAUSAU         CLEAR     70  66  87 CALM      29.95S
MOSINEE        CLEAR     70  66  88 E3        29.97
MARSHFIELD     CLEAR     71  63  75 E5        29.96R
STEVENS POINT  CLEAR     66  64  93 CALM      29.96S
WAUPACA        CLEAR     69  68  96 CALM      29.95S
WAUTOMA        CLEAR     69  67  93 CALM      29.95S
WISC RAPIDS    CLEAR     72  64  76 E6        29.96R
CAMP DOUGLAS   PTCLDY    73  73 100 E9        29.93R
$$

WIZ011>013-019>022-031-037>040-048>050-040200-
NORTHEAST WISCONSIN

CITY           SKY/WX    TMP DP  RH WIND       PRES   REMARKS
ANTIGO         CLEAR     67  65  93 CALM      29.99R
SHAWANO        NOT AVBL
OCONTO         CLEAR     68  65  90 CALM      29.94R
STURGEON BAY   CLEAR     66  61  82 N3        29.97R
GREEN BAY      CLEAR     69  64  84 NE3       29.94S
MANITOWOC      CLEAR     67  65  93 MISG      29.94S
APPLETON       PTCLDY    66  64  94 NW3       29.94S
CLINTONVILLE   PTCLDY    68  64  88 CALM      29.94S
OSHKOSH        CLEAR     69  65  86 CALM      29.94S
$$

WIZ032>034-041-042-053>061-040200-
SOUTHWEST WISCONSIN

CITY           SKY/WX    TMP DP  RH WIND       PRES   REMARKS
LA CROSSE      PTCLDY    82  71  69 E8        29.88R HX  86
SPARTA         CLEAR     77  67  71 E5        29.92S
VIROQUA          N/A     76  75  95 E5        29.92S
BOSCOBEL       CLOUDY    83  76  79 CALM      29.88R HX  91
PRAIRIE DU CHI CLEAR     81  74  79 CALM      29.86S HX  87
PLATTEVILLE    CLEAR     81  74  80 S5        29.90S HX  86
$$

WIZ056-057-062-063-064-067-068-040200-
SOUTH CENTRAL WISCONSIN

CITY           SKY/WX    TMP DP  RH WIND       PRES   REMARKS
REEDSBURG      CLEAR     75  69  80 E6        29.92R
BARABOO/DELLS  CLEAR     73  65  75 E7        29.94R
LONE ROCK      CLEAR     79  73  82 E9        29.91R HX  82
MINERAL POINT  MOCLDY    82  73  74 NE7       29.92R HX  88
MADISON        MOCLDY    74  67  78 NE6       29.93R
MIDDLETON      PTCLDY    75  68  77 NE7       29.94R
WATERTOWN      MOCLDY    72  70  94 NE6       29.94R
MONROE         MOCLDY    79  73  83 NE7       29.92R THUNDER HX  82
JANESVILLE     MOCLDY    81  72  74 NE8       29.91R HX  84
$$

WIZ051-052-058>065-066-070>072-040200-
SOUTHEAST WISCONSIN

CITY           SKY/WX    TMP DP  RH WIND       PRES   REMARKS
MILWAUKEE      FOG       65  62  90 N9        29.94R VSB 1/4
WAUKESHA       MOCLDY    75  64  69 N9        29.95R
MILWAUKEE/TIMM CLEAR     68  63  83 NE6       29.95R
RACINE         PTCLDY    67  64  90 NE3       29.96R
BURLINGTON     PTCLDY    69  65  84 E6        29.94R
KENOSHA        CLOUDY    69  65  86 E6        29.94R
FOND DU LAC    CLEAR     71  66  84 N5        29.94S
SHEBOYGAN      CLEAR     64  62  93 NE6       29.94S
WEST BEND      CLEAR     70  63  78 CALM      29.95R
JUNEAU         CLEAR     70  65  85 N5        29.95S
$$

LSZ147-162-040200-
LAKE SUPERIOR

STATION/POSITION TIME  TEMP    WIND        PRES    WAVE
                       AIR SEA DIR/SP/G            HT/PER
                 (UTC) (F)     (DEG/KT/KT) (MB)    (FT/S)
W MID LAKE BUOY  0050   59 57   60/  8/  8 1014.9S   0
DEVILS ISLAND    0100   59      80/  4/  5 1015.0R
PORT WING        0000   59      60/  6/ 11 1014.6R
SAXON HARBOR     0000   63        CALM     1014.2F
$$

LMZ867-665-643>646-040200-
LAKE MICHIGAN

STATION/POSITION TIME  TEMP    WIND        PRES    WAVE
                       AIR SEA DIR/SP/G            HT/PER
                 (UTC) (F)     (DEG/KT/KT) (MB)    (FT/S)
CHAMBERS ISLAND  0000   69     350/  1/  3 1013.9S
S GREEN BAY BUOY 2330   69 67   40/  8/ 10 1015.1S
N MID LAKE BUOY  0050   68 67  360/ 10/ 12 1013.3R   1/ 3
NORTHPORT PIER   0000   70      30/  8/ 11 1013.5S
SISTER BAY       0011   71      40/  2/  5   N/A
ALGOMA LAKESHORE 0014           30/  5/  6   N/A
KEWAUNEE LAKESHO 0100   65      20/  4/  7 1013.1R
SHEBOYGAN LAKESH 0100   62      20/ 10/ 11 1013.9R
PORT WASHINGTON  0000   61      30/  4/  8 1014.2R
ATWATER BUOY     0100   58     290/  6/  8 1015.1R
MILWAUKEE LAKESH 0110   64      20/  5/  5   N/A
S MID LAKE BUOY  0050   70 71  360/ 12/ 14 1012.4R   1/ 3
KENOSHA   LAKESH 0100   67     360/  9/  9 1013.2R
$$

TC  - TEMPERATURE IN CELSIUS
VSB - VISIBILITY IN STATUTE MILES
WCI - WIND CHILL INDEX
HX  - HEAT INDEX



USA.gov is the U.S. government's official web portal to all federal, state and local government web resources and services.